Time,TemperatureF,DewpointF,PressureIn,WindDirection,WindDirectionDegrees,WindSpeedMPH,WindSpeedGustMPH,Humidity,HourlyPrecipIn,Conditions,Clouds,dailyrainin,SoftwareType,DateUTC
2013-03-03 00:00:00,38.9,31.6,30.00,North,9,1.1,1.1,75,0.00,CLR,,0.00,WeatherDisplay:10.37,2013-03-03 05:00:00,
2013-03-03 00:05:00,38.9,31.6,29.99,North,9,1.1,1.1,75,0.00,CLR,,0.00,WeatherDisplay:10.37,2013-03-03 05:05:00,
2013-03-03 00:10:00,39.0,31.7,30.00,North,9,1.0,0.0,75,0.00,CLR,,0.00,WeatherDisplay:10.37,2013-03-03 05:10:00,
2013-03-03 00:15:00,39.1,31.8,30.00,North,9,0.0,0.0,75,0.00,CLR,,0.00,WeatherDisplay:10.37,2013-03-03 05:15:00,
2013-03-03 00:20:00,39.3,31.7,29.99,North,9,1.1,1.1,74,0.00,CLR,,0.00,WeatherDisplay:10.37,2013-03-03 05:20:00,
2013-03-03 00:25:00,39.3,31.7,29.99,North,9,1.1,1.1,74,0.00,CLR,,0.00,WeatherDisplay:10.37,2013-03-03 05:25:00,
2013-03-03 00:30:00,39.4,31.8,29.99,North,9,1.1,1.1,74,0.00,CLR,,0.00,WeatherDisplay:10.37,2013-03-03 05:30:00,
2013-03-03 00:35:00,39.4,31.8,29.99,North,9,1.1,0.0,74,0.00,CLR,,0.00,WeatherDisplay:10.37,2013-03-03 05:35:00,
2013-03-03 00:40:00,39.5,31.9,29.99,North,9,1.1,0.0,74,0.00,CLR,,0.00,WeatherDisplay:10.37,2013-03-03 05:40:00,
2013-03-03 00:45:00,39.4,31.8,29.99,North,9,0.0,0.0,74,0.00,CLR,,0.00,WeatherDisplay:10.37,2013-03-03 05:45:00,
2013-03-03 00:50:00,39.4,31.8,29.98,North,11,3.5,0.0,74,0.00,CLR,,0.00,WeatherDisplay:10.37,2013-03-03 05:50:00,
2013-03-03 00:55:00,39.4,31.8,29.98,North,11,2.3,0.0,74,0.00,CLR,,0.00,WeatherDisplay:10.37,2013-03-03 05:55:00,
2013-03-03 01:00:00,39.4,31.8,29.99,North,360,0.0,0.0,74,0.00,CLR,,0.00,WeatherDisplay:10.37,2013-03-03 06:00:00,
2013-03-03 01:05:00,39.4,31.8,29.99,North,360,0.0,0.0,74,0.00,CLR,,0.00,WeatherDisplay:10.37,2013-03-03 06:05:00,
2013-03-03 01:10:00,39.4,31.8,29.99,North,360,2.3,2.3,74,0.00,CLR,,0.00,WeatherDisplay:10.37,2013-03-03 06:10:00,
2013-03-03 01:15:00,39.4,32.1,29.99,North,360,1.1,1.1,75,0.00,CLR,,0.00,WeatherDisplay:10.37,2013-03-03 06:15:00,
2013-03-03 01:20:00,39.4,32.1,29.99,North,360,1.1,0.0,75,0.00,CLR,,0.00,WeatherDisplay:10.37,2013-03-03 06:20:00,
2013-03-03 01:25:00,39.4,31.8,29.99,North,360,0.0,0.0,74,0.00,CLR,,0.00,WeatherDisplay:10.37,2013-03-03 06:25:00,
2013-03-03 01:30:00,39.4,31.8,29.99,North,360,3.5,0.0,74,0.00,CLR,,0.00,WeatherDisplay:10.37,2013-03-03 06:30:00,
2013-03-03 01:35:00,39.3,31.7,29.99,NNW,344,1.1,0.0,74,0.00,CLR,,0.00,WeatherDisplay:10.37,2013-03-03 06:35:00,
2013-03-03 01:40:00,39.3,32.0,29.99,NNW,344,1.1,0.0,75,0.00,CLR,,0.00,WeatherDisplay:10.37,2013-03-03 06:40:00,
2013-03-03 01:45:00,39.2,31.9,29.99,NNW,345,2.3,2.3,75,0.00,CLR,,0.00,WeatherDisplay:10.37,2013-03-03 06:45:00,
2013-03-03 01:50:00,39.2,31.9,30.00,NNW,345,0.0,0.0,75,0.00,CLR,,0.00,WeatherDisplay:10.37,2013-03-03 06:50:00,
2013-03-03 01:55:00,39.2,31.9,30.00,NNW,345,0.0,0.1,75,0.00,CLR,,0.00,WeatherDisplay:10.37,2013-03-03 06:55:00,
2013-03-03 02:00:00,39.1,32.2,30.00,NNW,345,0.0,0.0,76,0.00,CLR,,0.00,WeatherDisplay:10.37,2013-03-03 07:00:00,
2013-03-03 02:05:00,39.0,32.1,30.00,NNW,345,0.0,0.0,76,0.00,CLR,,0.00,WeatherDisplay:10.37,2013-03-03 07:05:00,
2013-03-03 02:10:00,38.9,32.0,30.00,NNW,345,1.1,0.0,76,0.00,CLR,,0.00,WeatherDisplay:10.37,2013-03-03 07:10:00,
2013-03-03 02:15:00,38.8,31.9,30.00,NNW,345,1.1,0.0,76,0.00,CLR,,0.00,WeatherDisplay:10.37,2013-03-03 07:15:00,
2013-03-03 02:20:00,38.7,32.1,29.99,NNW,345,1.1,0.0,77,0.00,CLR,,0.00,WeatherDisplay:10.37,2013-03-03 07:20:00,
2013-03-03 02:25:00,38.7,32.1,29.99,NNW,345,1.1,0.0,77,0.00,CLR,,0.00,WeatherDisplay:10.37,2013-03-03 07:25:00,
2013-03-03 02:30:00,38.7,32.1,29.99,NNW,345,0.0,0.0,77,0.00,CLR,,0.00,WeatherDisplay:10.37,2013-03-03 07:30:00,
2013-03-03 02:35:00,38.7,32.1,29.99,NNW,345,1.1,0.0,77,0.00,CLR,,0.00,WeatherDisplay:10.37,2013-03-03 07:35:00,
2013-03-03 02:40:00,38.6,32.0,29.99,NNW,345,1.1,0.0,77,0.00,CLR,,0.00,WeatherDisplay:10.37,2013-03-03 07:40:00,
2013-03-03 02:45:00,38.6,32.3,29.99,NNW,345,2.3,0.0,78,0.00,CLR,,0.00,WeatherDisplay:10.37,2013-03-03 07:45:00,
2013-03-03 02:50:00,38.7,32.4,29.99,NNW,345,1.1,0.0,78,0.00,CLR,,0.00,WeatherDisplay:10.37,2013-03-03 07:50:00,
2013-03-03 02:55:00,38.6,32.3,29.99,NNW,345,1.1,1.1,78,0.00,CLR,,0.00,WeatherDisplay:10.37,2013-03-03 07:55:00,
2013-03-03 03:00:00,38.6,32.3,29.99,NW,326,0.0,0.0,78,0.00,CLR,,0.00,WeatherDisplay:10.37,2013-03-03 08:00:00,
2013-03-03 03:05:00,38.6,32.3,29.99,NW,326,0.0,0.0,78,0.00,CLR,,0.00,WeatherDisplay:10.37,2013-03-03 08:05:00,
2013-03-03 03:10:00,38.6,32.3,29.99,NW,326,0.0,0.0,78,0.00,CLR,,0.00,WeatherDisplay:10.37,2013-03-03 08:10:00,
2013-03-03 03:15:00,38.6,32.3,29.99,NW,326,1.1,1.1,78,0.00,CLR,,0.00,WeatherDisplay:10.37,2013-03-03 08:15:00,
2013-03-03 03:20:00,38.5,32.2,29.98,NW,326,0.0,0.0,78,0.00,CLR,,0.00,WeatherDisplay:10.37,2013-03-03 08:20:00,
2013-03-03 03:25:00,38.4,32.1,29.98,NW,326,0.0,0.0,78,0.00,CLR,,0.00,WeatherDisplay:10.37,2013-03-03 08:25:00,
2013-03-03 03:30:00,38.3,32.4,29.98,NW,326,1.1,0.0,79,0.00,CLR,,0.00,WeatherDisplay:10.37,2013-03-03 08:30:00,
2013-03-03 03:35:00,38.3,32.4,29.98,NW,326,2.3,0.0,79,0.00,CLR,,0.00,WeatherDisplay:10.37,2013-03-03 08:35:00,
2013-03-03 03:40:00,38.2,32.3,29.98,NW,326,0.0,0.0,79,0.00,CLR,,0.00,WeatherDisplay:10.37,2013-03-03 08:40:00,
2013-03-03 03:45:00,38.2,32.3,29.98,NW,326,1.1,1.1,79,0.00,CLR,,0.00,WeatherDisplay:10.37,2013-03-03 08:45:00,
2013-03-03 03:50:00,38.1,32.5,29.98,NW,326,1.1,0.0,80,0.00,CLR,,0.00,WeatherDisplay:10.37,2013-03-03 08:50:00,
2013-03-03 03:55:00,38.1,32.5,29.98,NW,326,2.0,2.0,80,0.00,CLR,,0.00,WeatherDisplay:10.37,2013-03-03 08:55:00,
2013-03-03 04:00:00,38.2,32.6,29.98,NW,326,0.0,0.0,80,0.00,CLR,,0.00,WeatherDisplay:10.37,2013-03-03 09:00:00,
2013-03-03 04:05:00,38.2,32.6,29.99,NW,326,0.0,0.0,80,0.00,CLR,,0.00,WeatherDisplay:10.37,2013-03-03 09:05:00,
2013-03-03 04:10:00,38.1,32.5,29.99,NW,326,0.0,0.0,80,0.00,CLR,,0.00,WeatherDisplay:10.37,2013-03-03 09:10:00,
2013-03-03 04:15:00,38.0,32.4,29.98,NW,326,0.0,0.4,80,0.00,CLR,,0.00,WeatherDisplay:10.37,2013-03-03 09:15:00,
2013-03-03 04:20:00,37.9,32.6,29.98,NW,326,1.1,1.1,81,0.00,CLR,,0.00,WeatherDisplay:10.37,2013-03-03 09:20:00,
2013-03-03 04:25:00,37.9,32.3,29.98,NW,326,0.0,0.0,80,0.00,CLR,,0.00,WeatherDisplay:10.37,2013-03-03 09:25:00,
2013-03-03 04:30:00,37.8,32.2,29.98,NW,326,1.1,0.0,80,0.00,CLR,,0.00,WeatherDisplay:10.37,2013-03-03 09:30:00,
2013-03-03 04:35:00,37.7,32.1,29.98,NW,326,0.0,0.1,80,0.00,CLR,,0.00,WeatherDisplay:10.37,2013-03-03 09:35:00,
2013-03-03 04:40:00,37.6,32.0,29.98,NW,326,0.0,0.0,80,0.00,CLR,,0.00,WeatherDisplay:10.37,2013-03-03 09:40:00,
2013-03-03 04:45:00,37.5,31.9,29.98,NW,326,0.0,0.0,80,0.00,CLR,,0.00,WeatherDisplay:10.37,2013-03-03 09:45:00,
2013-03-03 04:50:00,37.4,32.1,29.98,NW,326,0.0,0.0,81,0.00,CLR,,0.00,WeatherDisplay:10.37,2013-03-03 09:50:00,
2013-03-03 04:55:00,37.4,32.1,29.99,NW,326,0.0,0.0,81,0.00,CLR,,0.00,WeatherDisplay:10.37,2013-03-03 09:55:00,
2013-03-03 05:00:00,37.3,32.0,29.99,NW,326,0.0,0.0,81,0.00,CLR,,0.00,WeatherDisplay:10.37,2013-03-03 10:00:00,
2013-03-03 05:05:00,37.3,32.0,29.99,NW,326,0.0,0.0,81,0.00,CLR,,0.00,WeatherDisplay:10.37,2013-03-03 10:05:00,
2013-03-03 05:10:00,37.2,31.9,29.99,NW,326,0.0,0.0,81,0.00,CLR,,0.00,WeatherDisplay:10.37,2013-03-03 10:10:00,
2013-03-03 05:15:00,37.2,31.9,29.99,NW,326,0.0,0.0,81,0.00,CLR,,0.00,WeatherDisplay:10.37,2013-03-03 10:15:00,
2013-03-03 05:20:00,37.2,32.2,29.99,NW,326,0.0,0.0,82,0.00,CLR,,0.00,WeatherDisplay:10.37,2013-03-03 10:20:00,
2013-03-03 05:25:00,37.1,31.8,29.99,NW,326,0.0,0.0,81,0.00,CLR,,0.00,WeatherDisplay:10.37,2013-03-03 10:25:00,
2013-03-03 05:30:00,37.0,32.0,29.99,NW,326,0.0,0.0,82,0.00,CLR,,0.00,WeatherDisplay:10.37,2013-03-03 10:30:00,
2013-03-03 05:35:00,36.8,31.8,29.99,NW,326,0.0,0.0,82,0.00,CLR,,0.00,WeatherDisplay:10.37,2013-03-03 10:35:00,
2013-03-03 05:40:00,36.7,31.7,30.00,NW,326,0.0,0.0,82,0.00,CLR,,0.00,WeatherDisplay:10.37,2013-03-03 10:40:00,
2013-03-03 05:45:00,36.6,31.9,30.00,NW,326,0.0,0.0,83,0.00,CLR,,0.00,WeatherDisplay:10.37,2013-03-03 10:45:00,
2013-03-03 05:50:00,36.4,31.7,30.00,NW,326,0.0,0.0,83,0.00,CLR,,0.00,WeatherDisplay:10.37,2013-03-03 10:50:00,
2013-03-03 05:55:00,36.4,32.0,30.00,NW,326,0.0,0.0,84,0.00,CLR,,0.00,WeatherDisplay:10.37,2013-03-03 10:55:00,
2013-03-03 06:00:00,36.2,31.8,30.00,NW,326,0.0,0.0,84,0.00,CLR,,0.00,WeatherDisplay:10.37,2013-03-03 11:00:00,
2013-03-03 06:05:00,36.2,31.8,30.00,NW,326,0.0,0.0,84,0.00,CLR,,0.00,WeatherDisplay:10.37,2013-03-03 11:05:00,
2013-03-03 06:10:00,36.1,31.7,30.01,NW,326,0.0,0.0,84,0.00,CLR,,0.00,WeatherDisplay:10.37,2013-03-03 11:10:00,
2013-03-03 06:15:00,36.1,31.7,30.01,NW,326,0.0,0.0,84,0.00,CLR,,0.00,WeatherDisplay:10.37,2013-03-03 11:15:00,
2013-03-03 06:20:00,36.1,31.7,30.01,NW,326,0.0,0.0,84,0.00,CLR,,0.00,WeatherDisplay:10.37,2013-03-03 11:20:00,
2013-03-03 06:25:00,36.1,32.0,30.01,NW,326,0.0,0.0,85,0.00,CLR,,0.00,WeatherDisplay:10.37,2013-03-03 11:25:00,
2013-03-03 06:30:00,36.1,32.0,30.01,NW,326,0.0,0.0,85,0.00,CLR,,0.00,WeatherDisplay:10.37,2013-03-03 11:30:00,
2013-03-03 06:35:00,36.1,31.7,30.01,NW,326,0.0,0.0,84,0.00,CLR,,0.00,WeatherDisplay:10.37,2013-03-03 11:35:00,
2013-03-03 06:40:00,36.0,31.6,30.01,NW,326,0.0,0.0,84,0.00,CLR,,0.00,WeatherDisplay:10.37,2013-03-03 11:40:00,
2013-03-03 06:45:00,36.0,31.6,30.01,NW,326,0.0,0.0,84,0.00,CLR,,0.00,WeatherDisplay:10.37,2013-03-03 11:45:00,
2013-03-03 06:50:00,35.9,31.5,30.01,NW,326,0.0,0.0,84,0.00,CLR,,0.00,WeatherDisplay:10.37,2013-03-03 11:50:00,
2013-03-03 06:55:00,35.9,31.5,30.01,NW,326,0.0,0.0,84,0.00,CLR,,0.00,WeatherDisplay:10.37,2013-03-03 11:55:00,
2013-03-03 07:00:00,35.8,31.7,30.01,NW,326,0.0,0.0,85,0.00,CLR,,0.00,WeatherDisplay:10.37,2013-03-03 12:00:00,
2013-03-03 07:05:00,35.8,31.7,30.02,NW,326,0.0,0.0,85,0.00,CLR,,0.00,WeatherDisplay:10.37,2013-03-03 12:05:00,
2013-03-03 07:10:00,35.8,31.7,30.02,NW,326,0.0,0.0,85,0.00,CLR,,0.00,WeatherDisplay:10.37,2013-03-03 12:10:00,
2013-03-03 07:15:00,35.8,31.7,30.02,NW,326,0.0,0.0,85,0.00,CLR,,0.00,WeatherDisplay:10.37,2013-03-03 12:15:00,
2013-03-03 07:20:00,35.8,31.7,30.02,NW,326,0.0,0.0,85,0.00,CLR,,0.00,WeatherDisplay:10.37,2013-03-03 12:20:00,
2013-03-03 07:25:00,35.9,31.8,30.02,NW,326,0.0,0.0,85,0.00,CLR,,0.00,WeatherDisplay:10.37,2013-03-03 12:25:00,
2013-03-03 07:30:00,36.0,31.9,30.02,NW,326,0.0,0.0,85,0.00,CLR,,0.00,WeatherDisplay:10.37,2013-03-03 12:30:00,
2013-03-03 07:35:00,36.1,31.7,30.02,NW,326,0.0,0.0,84,0.00,CLR,,0.00,WeatherDisplay:10.37,2013-03-03 12:35:00,
2013-03-03 07:40:00,36.3,31.9,30.02,NW,326,0.0,0.1,84,0.00,CLR,,0.00,WeatherDisplay:10.37,2013-03-03 12:40:00,
2013-03-03 07:45:00,36.6,32.2,30.03,NW,326,0.0,0.0,84,0.00,CLR,,0.00,WeatherDisplay:10.37,2013-03-03 12:45:00,
2013-03-03 07:50:00,36.9,32.2,30.03,NW,325,0.0,0.0,83,0.00,CLR,,0.00,WeatherDisplay:10.37,2013-03-03 12:50:00,
2013-03-03 07:55:00,37.2,32.2,30.03,NW,325,2.3,2.3,82,0.00,CLR,,0.00,WeatherDisplay:10.37,2013-03-03 12:55:00,
2013-03-03 08:00:00,37.7,32.7,30.03,NW,325,0.0,0.0,82,0.00,CLR,,0.00,WeatherDisplay:10.37,2013-03-03 13:00:00,
2013-03-03 08:05:00,38.1,32.8,30.03,North,9,3.5,3.5,81,0.00,CLR,,0.00,WeatherDisplay:10.37,2013-03-03 13:05:00,
2013-03-03 08:10:00,38.5,32.9,30.03,NNW,340,3.5,3.5,80,0.00,CLR,,0.00,WeatherDisplay:10.37,2013-03-03 13:10:00,
2013-03-03 08:15:00,39.0,32.7,30.03,North,5,4.0,4.0,78,0.00,CLR,,0.00,WeatherDisplay:10.37,2013-03-03 13:15:00,
2013-03-03 08:20:00,39.5,32.6,30.03,North,355,4.6,4.6,76,0.00,CLR,,0.00,WeatherDisplay:10.37,2013-03-03 13:20:00,
2013-03-03 08:25:00,40.2,33.2,30.03,North,5,1.1,1.1,76,0.00,CLR,,0.00,WeatherDisplay:10.37,2013-03-03 13:25:00,
2013-03-03 08:30:00,40.9,33.2,30.03,North,355,3.5,3.5,74,0.00,CLR,,0.00,WeatherDisplay:10.37,2013-03-03 13:30:00,
2013-03-03 08:35:00,41.5,33.8,30.04,North,360,3.5,0.0,74,0.00,CLR,,0.00,WeatherDisplay:10.37,2013-03-03 13:35:00,
2013-03-03 08:40:00,42.2,33.8,30.03,North,355,2.3,2.3,72,0.00,CLR,,0.00,WeatherDisplay:10.37,2013-03-03 13:40:00,
2013-03-03 08:45:00,42.5,33.4,30.03,North,360,5.0,5.0,70,0.00,CLR,,0.00,WeatherDisplay:10.37,2013-03-03 13:45:00,
2013-03-03 08:50:00,42.8,33.3,30.04,North,355,4.6,4.6,69,0.00,CLR,,0.00,WeatherDisplay:10.37,2013-03-03 13:50:00,
2013-03-03 08:55:00,43.1,33.3,30.03,NNW,340,4.6,4.6,68,0.00,CLR,,0.00,WeatherDisplay:10.37,2013-03-03 13:55:00,
2013-03-03 09:00:00,43.5,33.3,30.04,NNW,339,6.9,6.9,67,0.00,CLR,,0.00,WeatherDisplay:10.37,2013-03-03 14:00:00,
2013-03-03 09:05:00,43.7,33.8,30.04,NNW,331,5.0,5.0,68,0.00,CLR,,0.00,WeatherDisplay:10.37,2013-03-03 14:05:00,
2013-03-03 09:10:00,43.9,32.9,30.04,North,355,7.0,7.0,65,0.00,CLR,,0.00,WeatherDisplay:10.37,2013-03-03 14:10:00,
2013-03-03 09:15:00,43.9,32.9,30.04,NNW,333,3.0,4.2,65,0.00,CLR,,0.00,WeatherDisplay:10.37,2013-03-03 14:15:00,
2013-03-03 09:20:00,44.0,32.2,30.04,NNW,347,4.6,4.6,63,0.00,CLR,,0.00,WeatherDisplay:10.37,2013-03-03 14:20:00,
2013-03-03 09:25:00,44.1,32.7,30.04,NNW,339,5.8,5.8,64,0.00,CLR,,0.00,WeatherDisplay:10.37,2013-03-03 14:25:00,
2013-03-03 09:30:00,44.4,32.6,30.04,NNE,28,3.5,3.5,63,0.00,CLR,,0.00,WeatherDisplay:10.37,2013-03-03 14:30:00,
2013-03-03 09:35:00,44.9,33.1,30.04,North,11,4.6,4.6,63,0.00,CLR,,0.00,WeatherDisplay:10.37,2013-03-03 14:35:00,
2013-03-03 09:40:00,45.1,32.0,30.04,North,355,4.0,4.0,60,0.00,CLR,,0.00,WeatherDisplay:10.37,2013-03-03 14:40:00,
2013-03-03 09:45:00,44.9,32.3,30.04,North,5,5.0,5.0,61,0.00,CLR,,0.00,WeatherDisplay:10.37,2013-03-03 14:45:00,
2013-03-03 09:50:00,45.1,32.4,30.03,NNE,15,5.8,5.8,61,0.00,CLR,,0.00,WeatherDisplay:10.37,2013-03-03 14:50:00,
2013-03-03 09:55:00,45.3,32.2,30.03,NNW,347,4.6,4.6,60,0.00,CLR,,0.00,WeatherDisplay:10.37,2013-03-03 14:55:00,
2013-03-03 10:00:00,45.5,31.1,30.04,NW,324,4.6,4.6,57,0.00,CLR,,0.00,WeatherDisplay:10.37,2013-03-03 15:00:00,
2013-03-03 10:05:00,45.6,31.2,30.04,North,360,7.0,7.0,57,0.00,CLR,,0.00,WeatherDisplay:10.37,2013-03-03 15:05:00,
2013-03-03 10:10:00,45.5,31.6,30.04,NW,326,6.0,6.0,58,0.00,CLR,,0.00,WeatherDisplay:10.37,2013-03-03 15:10:00,
2013-03-03 10:15:00,45.7,30.9,30.04,North,11,6.9,6.9,56,0.00,CLR,,0.00,WeatherDisplay:10.37,2013-03-03 15:15:00,
2013-03-03 10:20:00,45.5,30.7,30.04,NNW,337,4.6,4.6,56,0.00,CLR,,0.00,WeatherDisplay:10.37,2013-03-03 15:20:00,
2013-03-03 10:25:00,45.3,30.5,30.04,NNE,13,6.9,6.9,56,0.00,CLR,,0.00,WeatherDisplay:10.37,2013-03-03 15:25:00,
2013-03-03 10:30:00,45.1,31.2,30.04,North,10,3.5,3.5,58,0.00,CLR,,0.00,WeatherDisplay:10.37,2013-03-03 15:30:00,
2013-03-03 10:35:00,45.0,30.7,30.04,North,360,4.0,4.0,57,0.00,CLR,,0.00,WeatherDisplay:10.37,2013-03-03 15:35:00,
2013-03-03 10:40:00,44.9,30.6,30.04,NNW,338,3.5,3.5,57,0.00,CLR,,0.00,WeatherDisplay:10.37,2013-03-03 15:40:00,
2013-03-03 10:45:00,44.9,30.6,30.04,North,349,4.6,4.6,57,0.00,CLR,,0.00,WeatherDisplay:10.37,2013-03-03 15:45:00,
2013-03-03 10:50:00,44.9,30.1,30.04,North,360,9.2,9.2,56,0.00,CLR,,0.00,WeatherDisplay:10.37,2013-03-03 15:50:00,
2013-03-03 10:55:00,44.7,30.0,30.04,NW,306,2.3,2.3,56,0.00,CLR,,0.00,WeatherDisplay:10.37,2013-03-03 15:55:00,
2013-03-03 11:00:00,44.6,31.1,30.04,North,349,3.5,3.5,59,0.00,CLR,,0.00,WeatherDisplay:10.37,2013-03-03 16:00:00,
2013-03-03 11:05:00,44.5,30.2,30.04,North,355,2.3,2.3,57,0.00,CLR,,0.00,WeatherDisplay:10.37,2013-03-03 16:05:00,
2013-03-03 11:10:00,44.5,29.8,30.04,NNW,346,9.2,9.2,56,0.00,CLR,,0.00,WeatherDisplay:10.37,2013-03-03 16:10:00,
2013-03-03 11:15:00,44.3,30.0,30.04,North,355,3.5,3.5,57,0.00,CLR,,0.00,WeatherDisplay:10.37,2013-03-03 16:15:00,
2013-03-03 11:20:00,44.1,30.3,30.04,NNW,344,3.5,3.5,58,0.00,CLR,,0.00,WeatherDisplay:10.37,2013-03-03 16:20:00,
2013-03-03 11:25:00,44.1,30.7,30.04,North,355,4.6,4.6,59,0.00,CLR,,0.00,WeatherDisplay:10.37,2013-03-03 16:25:00,
2013-03-03 11:30:00,44.2,30.3,30.04,North,5,3.5,3.5,58,0.00,CLR,,0.00,WeatherDisplay:10.37,2013-03-03 16:30:00,
2013-03-03 11:35:00,44.3,30.0,30.04,North,355,3.5,3.5,57,0.00,CLR,,0.00,WeatherDisplay:10.37,2013-03-03 16:35:00,
2013-03-03 11:40:00,44.2,30.3,30.04,NNW,339,1.1,1.8,58,0.00,CLR,,0.00,WeatherDisplay:10.37,2013-03-03 16:40:00,
2013-03-03 11:45:00,44.2,29.5,30.05,NNE,16,5.8,5.8,56,0.00,CLR,,0.00,WeatherDisplay:10.37,2013-03-03 16:45:00,
2013-03-03 11:50:00,44.1,29.4,30.04,NNW,330,5.8,5.8,56,0.00,CLR,,0.00,WeatherDisplay:10.37,2013-03-03 16:50:00,
2013-03-03 11:55:00,44.1,28.9,30.04,North,360,5.8,5.8,55,0.00,CLR,,0.00,WeatherDisplay:10.37,2013-03-03 16:55:00,
2013-03-03 12:00:00,44.3,29.6,30.04,NNW,346,3.5,3.5,56,0.00,CLR,,0.00,WeatherDisplay:10.37,2013-03-03 17:00:00,
2013-03-03 12:05:00,44.6,29.9,30.03,North,360,3.5,3.5,56,0.00,CLR,,0.00,WeatherDisplay:10.37,2013-03-03 17:05:00,
2013-03-03 12:10:00,44.7,29.1,30.04,WNW,303,3.5,3.5,54,0.00,CLR,,0.00,WeatherDisplay:10.37,2013-03-03 17:10:00,
2013-03-03 12:15:00,44.6,29.4,30.03,North,5,5.0,5.0,55,0.00,CLR,,0.00,WeatherDisplay:10.37,2013-03-03 17:15:00,
2013-03-03 12:20:00,44.7,30.0,30.03,NNW,342,12.7,12.7,56,0.00,CLR,,0.00,WeatherDisplay:10.37,2013-03-03 17:20:00,
2013-03-03 12:25:00,44.6,29.4,30.03,North,351,6.9,6.9,55,0.00,CLR,,0.00,WeatherDisplay:10.37,2013-03-03 17:25:00,
2013-03-03 12:30:00,44.8,30.0,30.03,NNW,338,3.5,3.5,56,0.00,CLR,,0.00,WeatherDisplay:10.37,2013-03-03 17:30:00,
2013-03-03 12:35:00,45.0,29.8,30.03,North,355,10.4,10.4,55,0.00,CLR,,0.00,WeatherDisplay:10.37,2013-03-03 17:35:00,
2013-03-03 12:40:00,45.0,29.3,30.03,NNW,348,3.5,3.5,54,0.00,CLR,,0.00,WeatherDisplay:10.37,2013-03-03 17:40:00,
2013-03-03 12:45:00,45.0,30.2,30.02,NNW,344,5.0,5.0,56,0.00,CLR,,0.00,WeatherDisplay:10.37,2013-03-03 17:45:00,
2013-03-03 12:50:00,45.0,29.8,30.02,NNW,338,4.6,4.6,55,0.00,CLR,,0.00,WeatherDisplay:10.37,2013-03-03 17:50:00,
2013-03-03 12:55:00,45.0,29.8,30.03,North,5,4.6,4.6,55,0.00,CLR,,0.00,WeatherDisplay:10.37,2013-03-03 17:55:00,
2013-03-03 13:00:00,45.0,30.2,30.02,NNW,347,3.5,3.5,56,0.00,CLR,,0.00,WeatherDisplay:10.37,2013-03-03 18:00:00,
2013-03-03 13:05:00,45.1,29.4,30.02,NNW,327,11.5,11.5,54,0.00,CLR,,0.00,WeatherDisplay:10.37,2013-03-03 18:05:00,
2013-03-03 13:10:00,45.2,30.0,30.02,North,355,6.9,6.9,55,0.00,CLR,,0.00,WeatherDisplay:10.37,2013-03-03 18:10:00,
2013-03-03 13:15:00,45.0,29.3,30.01,North,360,6.9,6.9,54,0.00,CLR,,0.00,WeatherDisplay:10.37,2013-03-03 18:15:00,
2013-03-03 13:20:00,45.0,29.8,30.01,North,360,4.0,4.0,55,0.00,CLR,,0.00,WeatherDisplay:10.37,2013-03-03 18:20:00,
2013-03-03 13:25:00,44.9,30.1,30.01,NNW,333,3.5,3.5,56,0.00,CLR,,0.00,WeatherDisplay:10.37,2013-03-03 18:25:00,
2013-03-03 13:30:00,45.0,29.8,30.01,North,360,4.0,4.0,55,0.00,CLR,,0.00,WeatherDisplay:10.37,2013-03-03 18:30:00,
2013-03-03 13:35:00,45.3,30.1,30.01,North,351,5.8,5.8,55,0.00,CLR,,0.00,WeatherDisplay:10.37,2013-03-03 18:35:00,
2013-03-03 13:40:00,45.4,30.2,30.00,NNW,348,4.6,4.6,55,0.00,CLR,,0.00,WeatherDisplay:10.37,2013-03-03 18:40:00,
2013-03-03 13:45:00,45.4,30.2,30.00,North,355,4.0,4.0,55,0.00,CLR,,0.00,WeatherDisplay:10.37,2013-03-03 18:45:00,
2013-03-03 13:50:00,45.4,29.7,30.00,NNW,346,8.1,8.1,54,0.00,CLR,,0.00,WeatherDisplay:10.37,2013-03-03 18:50:00,
2013-03-03 13:55:00,45.5,29.8,30.00,NNW,330,6.9,6.9,54,0.00,CLR,,0.00,WeatherDisplay:10.37,2013-03-03 18:55:00,
2013-03-03 14:00:00,45.7,30.0,30.00,North,355,3.5,3.5,54,0.00,CLR,,0.00,WeatherDisplay:10.37,2013-03-03 19:00:00,
2013-03-03 14:05:00,45.8,29.6,30.00,North,355,11.5,11.5,53,0.00,CLR,,0.00,WeatherDisplay:10.37,2013-03-03 19:05:00,
2013-03-03 14:10:00,45.8,30.1,30.00,North,360,4.0,5.2,54,0.00,CLR,,0.00,WeatherDisplay:10.37,2013-03-03 19:10:00,
2013-03-03 14:15:00,45.6,29.9,30.00,NW,324,3.5,3.5,54,0.00,CLR,,0.00,WeatherDisplay:10.37,2013-03-03 19:15:00,
2013-03-03 14:20:00,45.7,30.9,30.00,West,273,3.0,3.0,56,0.00,CLR,,0.00,WeatherDisplay:10.37,2013-03-03 19:20:00,
2013-03-03 14:25:00,45.8,29.6,30.00,NNW,347,5.8,5.8,53,0.00,CLR,,0.00,WeatherDisplay:10.37,2013-03-03 19:25:00,
2013-03-03 14:30:00,45.8,29.2,30.00,West,280,5.8,5.8,52,0.00,CLR,,0.00,WeatherDisplay:10.37,2013-03-03 19:30:00,
2013-03-03 14:35:00,45.6,30.3,30.00,NNW,344,3.5,3.5,55,0.00,CLR,,0.00,WeatherDisplay:10.37,2013-03-03 19:35:00,
2013-03-03 14:40:00,45.7,30.4,30.00,NNW,338,9.2,9.2,55,0.00,CLR,,0.00,WeatherDisplay:10.37,2013-03-03 19:40:00,
2013-03-03 14:45:00,45.7,30.4,30.00,NNW,329,4.6,4.6,55,0.00,CLR,,0.00,WeatherDisplay:10.37,2013-03-03 19:45:00,
2013-03-03 14:50:00,45.7,30.4,30.00,NNW,345,3.5,3.5,55,0.00,CLR,,0.00,WeatherDisplay:10.37,2013-03-03 19:50:00,
2013-03-03 14:55:00,45.8,30.5,30.00,North,349,4.0,4.0,55,0.00,CLR,,0.00,WeatherDisplay:10.37,2013-03-03 19:55:00,
2013-03-03 15:00:00,46.0,30.7,30.00,NNW,343,4.6,4.6,55,0.00,CLR,,0.00,WeatherDisplay:10.37,2013-03-03 20:00:00,
2013-03-03 15:05:00,46.0,30.7,30.00,North,350,5.8,5.8,55,0.00,CLR,,0.00,WeatherDisplay:10.37,2013-03-03 20:05:00,
2013-03-03 15:10:00,45.9,30.6,30.00,North,349,8.1,8.1,55,0.00,CLR,,0.00,WeatherDisplay:10.37,2013-03-03 20:10:00,
2013-03-03 15:15:00,45.9,31.1,30.00,North,355,3.5,3.5,56,0.00,CLR,,0.00,WeatherDisplay:10.37,2013-03-03 20:15:00,
2013-03-03 15:20:00,46.0,30.7,30.00,North,5,3.5,3.5,55,0.00,CLR,,0.00,WeatherDisplay:10.37,2013-03-03 20:20:00,
2013-03-03 15:25:00,46.0,30.3,30.00,NW,310,2.3,2.3,54,0.00,CLR,,0.00,WeatherDisplay:10.37,2013-03-03 20:25:00,
2013-03-03 15:30:00,45.9,30.6,30.00,NW,309,5.8,5.8,55,0.00,CLR,,0.00,WeatherDisplay:10.37,2013-03-03 20:30:00,
2013-03-03 15:35:00,45.7,30.9,30.00,North,360,1.1,2.2,56,0.00,CLR,,0.00,WeatherDisplay:10.37,2013-03-03 20:35:00,
2013-03-03 15:40:00,45.7,30.9,30.00,NNW,331,4.6,4.6,56,0.00,CLR,,0.00,WeatherDisplay:10.37,2013-03-03 20:40:00,
2013-03-03 15:45:00,45.7,30.9,30.00,NW,325,1.1,1.1,56,0.00,CLR,,0.00,WeatherDisplay:10.37,2013-03-03 20:45:00,
2013-03-03 15:50:00,45.9,31.5,30.00,NNW,344,3.5,3.5,57,0.00,CLR,,0.00,WeatherDisplay:10.37,2013-03-03 20:50:00,
2013-03-03 15:55:00,46.5,31.6,30.00,NNW,340,3.5,3.5,56,0.00,CLR,,0.00,WeatherDisplay:10.37,2013-03-03 20:55:00,
2013-03-03 16:00:00,46.8,30.6,30.00,North,360,12.7,12.7,53,0.00,CLR,,0.00,WeatherDisplay:10.37,2013-03-03 21:00:00,
2013-03-03 16:05:00,46.9,30.6,30.00,NNW,342,4.0,4.0,53,0.00,CLR,,0.00,WeatherDisplay:10.37,2013-03-03 21:05:00,
2013-03-03 16:10:00,46.9,30.6,30.00,NNW,342,2.3,2.3,53,0.00,CLR,,0.00,WeatherDisplay:10.37,2013-03-03 21:10:00,
2013-03-03 16:15:00,46.8,31.0,30.00,WSW,251,2.0,2.0,54,0.00,CLR,,0.00,WeatherDisplay:10.37,2013-03-03 21:15:00,
2013-03-03 16:20:00,46.6,29.4,30.00,West,271,5.8,5.8,51,0.00,CLR,,0.00,WeatherDisplay:10.37,2013-03-03 21:20:00,
2013-03-03 16:25:00,46.6,29.9,30.00,NNW,339,3.5,3.5,52,0.00,CLR,,0.00,WeatherDisplay:10.37,2013-03-03 21:25:00,
2013-03-03 16:30:00,46.6,29.9,30.00,NNW,340,3.5,3.5,52,0.00,CLR,,0.00,WeatherDisplay:10.37,2013-03-03 21:30:00,
2013-03-03 16:35:00,47.1,29.9,30.00,SSW,201,5.0,5.0,51,0.00,CLR,,0.00,WeatherDisplay:10.37,2013-03-03 21:35:00,
2013-03-03 16:40:00,47.7,30.4,30.00,WNW,290,1.1,1.1,51,0.00,CLR,,0.00,WeatherDisplay:10.37,2013-03-03 21:40:00,
2013-03-03 16:45:00,47.8,29.0,30.00,WSW,257,11.5,11.5,48,0.00,CLR,,0.00,WeatherDisplay:10.37,2013-03-03 21:45:00,
2013-03-03 16:50:00,47.5,29.3,30.00,NW,304,2.3,2.3,49,0.00,CLR,,0.00,WeatherDisplay:10.37,2013-03-03 21:50:00,
2013-03-03 16:55:00,47.1,29.4,30.00,NNW,340,5.8,5.8,50,0.00,CLR,,0.00,WeatherDisplay:10.37,2013-03-03 21:55:00,
2013-03-03 17:00:00,46.9,29.2,29.99,WNW,290,2.3,2.3,50,0.00,CLR,,0.00,WeatherDisplay:10.37,2013-03-03 22:00:00,
2013-03-03 17:05:00,46.7,30.0,30.00,NNW,348,2.3,2.3,52,0.00,CLR,,0.00,WeatherDisplay:10.37,2013-03-03 22:05:00,
2013-03-03 17:10:00,46.6,28.9,30.00,NNW,336,3.5,3.5,50,0.00,CLR,,0.00,WeatherDisplay:10.37,2013-03-03 22:10:00,
2013-03-03 17:15:00,46.6,28.9,30.00,North,360,5.0,5.0,50,0.00,CLR,,0.00,WeatherDisplay:10.37,2013-03-03 22:15:00,
2013-03-03 17:20:00,46.4,29.2,30.00,WNW,300,1.0,6.0,51,0.00,CLR,CLR,0.00,WeatherDisplay:10.37,2013-03-03 22:20:00,
2013-03-03 17:25:00,46.2,29.1,30.00,NNE,13,3.5,3.5,51,0.00,CLR,,0.00,WeatherDisplay:10.37,2013-03-03 22:25:00,
2013-03-03 17:30:00,46.0,28.9,30.00,WNW,285,3.5,3.5,51,0.00,CLR,,0.00,WeatherDisplay:10.37,2013-03-03 22:30:00,
2013-03-03 17:35:00,45.9,29.2,30.01,North,351,3.5,3.5,52,0.00,CLR,,0.00,WeatherDisplay:10.37,2013-03-03 22:35:00,
2013-03-03 17:40:00,45.9,29.2,30.01,NNW,336,1.0,0.0,52,0.00,CLR,,0.00,WeatherDisplay:10.37,2013-03-03 22:40:00,
2013-03-03 17:45:00,45.8,29.2,30.01,North,355,2.3,2.3,52,0.00,CLR,,0.00,WeatherDisplay:10.37,2013-03-03 22:45:00,
2013-03-03 17:50:00,45.7,29.5,30.01,NNE,13,3.5,3.5,53,0.00,CLR,,0.00,WeatherDisplay:10.37,2013-03-03 22:50:00,
2013-03-03 17:55:00,45.5,28.9,30.01,North,360,3.5,3.5,52,0.00,CLR,,0.00,WeatherDisplay:10.37,2013-03-03 22:55:00,
2013-03-03 18:00:00,45.4,29.7,30.02,NNW,328,1.1,1.1,54,0.00,CLR,,0.00,WeatherDisplay:10.37,2013-03-03 23:00:00,
2013-03-03 18:05:00,45.3,29.6,30.02,North,350,4.6,4.6,54,0.00,CLR,,0.00,WeatherDisplay:10.37,2013-03-03 23:05:00,
2013-03-03 18:10:00,45.1,29.4,30.02,NNW,346,4.6,4.6,54,0.00,CLR,,0.00,WeatherDisplay:10.37,2013-03-03 23:10:00,
2013-03-03 18:15:00,45.0,29.3,30.03,North,355,4.6,4.6,54,0.00,CLR,,0.00,WeatherDisplay:10.37,2013-03-03 23:15:00,
2013-03-03 18:20:00,44.9,29.7,30.03,North,5,2.3,2.3,55,0.00,CLR,,0.00,WeatherDisplay:10.37,2013-03-03 23:20:00,
2013-03-03 18:25:00,44.7,29.5,30.03,North,5,3.5,3.5,55,0.00,CLR,,0.00,WeatherDisplay:10.37,2013-03-03 23:25:00,
2013-03-03 18:30:00,44.5,29.8,30.04,North,5,0.0,0.0,56,0.00,CLR,,0.00,WeatherDisplay:10.37,2013-03-03 23:30:00,
2013-03-03 18:35:00,44.3,29.6,30.04,NNW,342,4.6,4.6,56,0.00,CLR,,0.00,WeatherDisplay:10.37,2013-03-03 23:35:00,
2013-03-03 18:40:00,44.2,29.9,30.04,NNW,342,1.1,1.1,57,0.00,CLR,,0.00,WeatherDisplay:10.37,2013-03-03 23:40:00,
2013-03-03 18:45:00,44.0,30.2,30.04,NNW,342,2.3,2.3,58,0.00,CLR,,0.00,WeatherDisplay:10.37,2013-03-03 23:45:00,
2013-03-03 18:50:00,43.9,29.6,30.04,NNE,15,1.1,0.0,57,0.00,CLR,,0.00,WeatherDisplay:10.37,2013-03-03 23:50:00,
2013-03-03 18:55:00,43.8,29.5,30.05,NNE,15,1.1,1.1,57,0.00,CLR,,0.00,WeatherDisplay:10.37,2013-03-03 23:55:00,
2013-03-03 19:00:00,43.6,30.2,30.05,NNE,17,4.6,4.6,59,0.00,CLR,,0.00,WeatherDisplay:10.37,2013-03-04 00:00:00,
2013-03-03 19:05:00,43.5,30.1,30.05,NNW,347,3.5,3.5,59,0.00,CLR,,0.00,WeatherDisplay:10.37,2013-03-04 00:05:00,
2013-03-03 19:10:00,43.3,29.9,30.05,North,349,1.1,1.1,59,0.00,CLR,,0.00,WeatherDisplay:10.37,2013-03-04 00:10:00,
2013-03-03 19:15:00,43.1,29.7,30.06,North,349,0.0,0.0,59,0.00,CLR,,0.00,WeatherDisplay:10.37,2013-03-04 00:15:00,
2013-03-03 19:20:00,42.9,29.5,30.06,North,360,0.0,0.0,59,0.00,CLR,,0.00,WeatherDisplay:10.37,2013-03-04 00:20:00,
2013-03-03 19:25:00,42.7,30.2,30.06,North,360,0.0,0.0,61,0.00,CLR,,0.00,WeatherDisplay:10.37,2013-03-04 00:25:00,
2013-03-03 19:30:00,42.5,30.0,30.06,North,360,0.0,0.0,61,0.00,CLR,,0.00,WeatherDisplay:10.37,2013-03-04 00:30:00,
2013-03-03 19:35:00,42.3,29.8,30.07,North,360,0.0,0.0,61,0.00,CLR,,0.00,WeatherDisplay:10.37,2013-03-04 00:35:00,
2013-03-03 19:40:00,42.2,30.1,30.07,NNE,15,0.0,0.0,62,0.00,CLR,,0.00,WeatherDisplay:10.37,2013-03-04 00:40:00,
2013-03-03 19:45:00,42.0,29.9,30.07,NNE,15,0.0,0.0,62,0.00,CLR,,0.00,WeatherDisplay:10.37,2013-03-04 00:45:00,
2013-03-03 19:50:00,41.7,30.0,30.07,NNE,15,0.0,0.0,63,0.00,CLR,,0.00,WeatherDisplay:10.37,2013-03-04 00:50:00,
2013-03-03 19:55:00,41.5,30.6,30.08,NNE,15,1.1,0.0,65,0.00,CLR,,0.00,WeatherDisplay:10.37,2013-03-04 00:55:00,
2013-03-03 20:00:00,41.2,29.9,30.08,NNE,15,0.0,0.0,64,0.00,CLR,,0.00,WeatherDisplay:10.37,2013-03-04 01:00:00,
2013-03-03 20:05:00,41.0,29.7,30.08,NNE,15,0.0,0.0,64,0.00,CLR,,0.00,WeatherDisplay:10.37,2013-03-04 01:05:00,
2013-03-03 20:10:00,40.8,29.6,30.08,NNE,15,0.0,0.0,64,0.00,CLR,,0.00,WeatherDisplay:10.37,2013-03-04 01:10:00,
2013-03-03 20:15:00,40.7,29.8,30.08,NNE,15,0.0,0.0,65,0.00,CLR,,0.00,WeatherDisplay:10.37,2013-03-04 01:15:00,
2013-03-03 20:20:00,40.5,29.7,30.08,NNE,15,0.0,0.0,65,0.00,CLR,,0.00,WeatherDisplay:10.37,2013-03-04 01:20:00,
2013-03-03 20:25:00,40.3,29.8,30.09,NNE,15,0.0,0.0,66,0.00,CLR,,0.00,WeatherDisplay:10.37,2013-03-04 01:25:00,
2013-03-03 20:30:00,40.1,29.6,30.09,NNE,15,0.0,0.0,66,0.00,CLR,,0.00,WeatherDisplay:10.37,2013-03-04 01:30:00,
2013-03-03 20:35:00,40.0,29.9,30.09,NNE,15,0.0,0.0,67,0.00,CLR,,0.00,WeatherDisplay:10.37,2013-03-04 01:35:00,
2013-03-03 20:40:00,39.8,30.1,30.09,NNE,15,0.0,0.0,68,0.00,CLR,,0.00,WeatherDisplay:10.37,2013-03-04 01:40:00,
2013-03-03 20:45:00,39.7,30.0,30.09,NNE,15,0.0,0.0,68,0.00,CLR,,0.00,WeatherDisplay:10.37,2013-03-04 01:45:00,
2013-03-03 20:50:00,39.5,29.8,30.10,NNE,15,0.0,0.0,68,0.00,CLR,,0.00,WeatherDisplay:10.37,2013-03-04 01:50:00,
2013-03-03 20:55:00,39.4,29.7,30.10,NNE,15,0.0,0.0,68,0.00,CLR,,0.00,WeatherDisplay:10.37,2013-03-04 01:55:00,
2013-03-03 21:00:00,39.2,29.5,30.10,NNE,15,0.0,0.0,68,0.00,CLR,,0.00,WeatherDisplay:10.37,2013-03-04 02:00:00,
2013-03-03 21:05:00,39.1,29.8,30.11,NNE,15,0.0,0.0,69,0.00,CLR,,0.00,WeatherDisplay:10.37,2013-03-04 02:05:00,
2013-03-03 21:10:00,39.0,30.0,30.11,NNE,15,0.0,0.0,70,0.00,CLR,,0.00,WeatherDisplay:10.37,2013-03-04 02:10:00,
2013-03-03 21:15:00,38.9,29.9,30.11,NNE,15,0.0,0.0,70,0.00,CLR,,0.00,WeatherDisplay:10.37,2013-03-04 02:15:00,
2013-03-03 21:20:00,38.8,29.8,30.11,NNE,15,0.0,0.0,70,0.00,CLR,,0.00,WeatherDisplay:10.37,2013-03-04 02:20:00,
2013-03-03 21:25:00,38.6,30.0,30.11,NNE,15,0.0,0.0,71,0.00,CLR,,0.00,WeatherDisplay:10.37,2013-03-04 02:25:00,
2013-03-03 21:30:00,38.5,30.3,30.11,NNE,15,0.0,0.0,72,0.00,CLR,,0.00,WeatherDisplay:10.37,2013-03-04 02:30:00,
2013-03-03 21:35:00,38.3,30.4,30.11,NNE,15,0.0,0.0,73,0.00,CLR,,0.00,WeatherDisplay:10.37,2013-03-04 02:35:00,
2013-03-03 21:40:00,38.1,30.2,30.11,NNE,15,0.0,0.0,73,0.00,CLR,,0.00,WeatherDisplay:10.37,2013-03-04 02:40:00,
2013-03-03 21:45:00,37.9,30.4,30.12,NNE,15,0.0,0.0,74,0.00,CLR,,0.00,WeatherDisplay:10.37,2013-03-04 02:45:00,
2013-03-03 21:51:00,37.6,30.4,30.12,NNE,15,0.0,0.0,75,0.00,CLR,,0.00,WeatherDisplay:10.37,2013-03-04 02:51:00,
2013-03-03 21:56:00,37.3,30.4,30.12,NNE,15,0.0,0.0,76,0.00,CLR,,0.00,WeatherDisplay:10.37,2013-03-04 02:56:00,
2013-03-03 22:01:00,37.1,30.6,30.12,NNE,15,0.0,0.0,77,0.00,CLR,,0.00,WeatherDisplay:10.37,2013-03-04 03:01:00,
2013-03-03 22:06:00,36.8,30.3,30.12,NNE,15,0.0,0.0,77,0.00,CLR,,0.00,WeatherDisplay:10.37,2013-03-04 03:06:00,
2013-03-03 22:11:00,36.5,30.3,30.12,NNE,15,0.0,0.0,78,0.00,CLR,,0.00,WeatherDisplay:10.37,2013-03-04 03:11:00,
2013-03-03 22:16:00,36.2,30.0,30.12,NNE,15,0.0,0.0,78,0.00,CLR,,0.00,WeatherDisplay:10.37,2013-03-04 03:16:00,
2013-03-03 22:21:00,36.0,30.1,30.12,NNE,15,0.0,0.0,79,0.00,CLR,,0.00,WeatherDisplay:10.37,2013-03-04 03:21:00,
2013-03-03 22:26:00,35.8,30.5,30.12,NNE,15,0.0,0.0,81,0.00,CLR,,0.00,WeatherDisplay:10.37,2013-03-04 03:26:00,
2013-03-03 22:31:00,35.6,30.3,30.12,NNE,15,0.0,0.0,81,0.00,CLR,,0.00,WeatherDisplay:10.37,2013-03-04 03:31:00,
2013-03-03 22:36:00,35.5,30.5,30.12,NNE,15,0.0,0.0,82,0.00,CLR,,0.00,WeatherDisplay:10.37,2013-03-04 03:36:00,
2013-03-03 22:41:00,35.2,30.3,30.12,NNE,15,0.0,0.0,82,0.00,CLR,,0.00,WeatherDisplay:10.37,2013-03-04 03:41:00,
2013-03-03 22:46:00,35.0,30.1,30.12,NNE,15,0.0,0.0,82,0.00,CLR,,0.00,WeatherDisplay:10.37,2013-03-04 03:46:00,
2013-03-03 22:51:00,34.8,30.2,30.12,NNE,15,0.0,0.0,83,0.00,CLR,,0.00,WeatherDisplay:10.37,2013-03-04 03:51:00,
2013-03-03 22:56:00,34.7,30.4,30.12,NNE,15,0.0,0.0,84,0.00,CLR,,0.00,WeatherDisplay:10.37,2013-03-04 03:56:00,
2013-03-03 23:01:00,34.5,30.2,30.12,NNE,15,0.0,0.0,84,0.00,CLR,,0.00,WeatherDisplay:10.37,2013-03-04 04:01:00,
2013-03-03 23:06:00,34.4,30.4,30.12,NNE,15,0.0,0.0,85,0.00,CLR,,0.00,WeatherDisplay:10.37,2013-03-04 04:06:00,
2013-03-03 23:11:00,34.3,30.3,30.12,NNE,15,0.0,0.0,85,0.00,CLR,,0.00,WeatherDisplay:10.37,2013-03-04 04:11:00,
2013-03-03 23:16:00,34.2,30.2,30.12,NNE,15,0.0,0.0,85,0.00,CLR,,0.00,WeatherDisplay:10.37,2013-03-04 04:16:00,
2013-03-03 23:21:00,34.1,30.1,30.12,NNE,15,0.0,0.0,85,0.00,CLR,,0.00,WeatherDisplay:10.37,2013-03-04 04:21:00,
2013-03-03 23:26:00,34.0,30.3,30.12,NNE,15,0.0,0.0,86,0.00,CLR,,0.00,WeatherDisplay:10.37,2013-03-04 04:26:00,
2013-03-03 23:31:00,33.9,30.2,30.12,NNE,15,0.0,0.0,86,0.00,CLR,,0.00,WeatherDisplay:10.37,2013-03-04 04:31:00,
2013-03-03 23:36:00,33.8,30.1,30.12,NNE,15,0.0,0.0,86,0.00,CLR,,0.00,WeatherDisplay:10.37,2013-03-04 04:36:00,
2013-03-03 23:41:00,33.8,30.3,30.11,NNE,15,0.0,0.0,87,0.00,CLR,,0.00,WeatherDisplay:10.37,2013-03-04 04:41:00,
2013-03-03 23:46:00,33.7,30.2,30.11,NNE,15,0.0,0.0,87,0.00,CLR,,0.00,WeatherDisplay:10.37,2013-03-04 04:46:00,
2013-03-03 23:51:00,33.5,30.0,30.12,NNE,15,0.0,0.0,87,0.00,CLR,,0.00,WeatherDisplay:10.37,2013-03-04 04:51:00,
2013-03-03 23:56:00,33.5,30.0,30.11,NNE,15,0.0,0.0,87,0.00,CLR,,0.00,WeatherDisplay:10.37,2013-03-04 04:56:00,